Fort Morgan, CO

12:44 AM MST on December 04, 2016 (GMT -0700)
Fort Morgan

Weather History for KFMM - April, 2014

Change the Weather History Date:

Wednesday, April 9, 2014

  Actual Average (KAKO) Record (KAKO)
Temperature  
Mean Temperature 58 °F 45 °F  
Max Temperature 78 °F 59 °F 83 °F (1977)
Min Temperature 37 °F 31 °F 7 °F (1989)
Degree Days  
Heating Degree Days 8    
Month to date heating degree days  
Cooling Degree Days 0    
Month to date cooling degree days  
Growing Degree Days 8 (Base 50)    
Moisture  
Dew Point 26 °F    
Average Humidity 35    
Maximum Humidity 69    
Minimum Humidity 12    
Precipitation  
Precipitation 0.00 in 0.05 in 0.51 in (1994)
Month to date precipitation 0.37  
Year to date precipitation 1.98  
Sea Level Pressure  
Sea Level Pressure 29.94 in    
Wind  
Wind Speed 8 mph (West)    
Max Wind Speed 20 mph    
Max Gust Speed 25 mph    
Visibility 10 miles    
Events      
T = Trace of Precipitation, MM = Missing Value Source: NWS Daily Summary

Daily Weather History Graph

Daily Weather History Graph

Search for Another Location

Airport or City:

Trip Planner

Search our weather history database for the weather conditions in past years. The results will help you decide how hot, cold, wet, or windy it might be!

Date:

Astronomy

Apr. 09, 2014 Rise Set
Actual Time 6:26 AM MDT 7:28 PM MDT
Civil Twilight 5:58 AM MDT 7:55 PM MDT
Nautical Twilight 5:25 AM MDT 8:29 PM MDT
Astronomical Twilight 4:50 AM MDT 9:03 PM MDT
Moon 2:17 PM MDT (4/9) 3:17 AM MDT (4/9)
Length of Visible Light 13h 57m
Length of Day
13h 01m
Waxing Gibbous, 72% of the Moon is Illuminated
Apr 9
Waxing Gibbous
Apr 15
Full
Apr 22
Last Quarter
Apr 29
New
May 6
First Quarter

Hourly Weather History & Observations

Time (MDT) Temp. Windchill Dew Point Humidity Pressure Visibility Wind Dir Wind Speed Gust Speed Precip Events Conditions
12:15 AM 40.6 °F 36.7 °F 27.5 °F 59% 30.06 in 10.0 mi West 5.8 mph - N/A   Clear
12:35 AM 42.3 °F 36.8 °F 28.2 °F 58% 30.06 in 10.0 mi West 9.2 mph - N/A   Clear
12:55 AM 41.2 °F 35.5 °F 28.0 °F 60% 30.06 in 10.0 mi West 9.2 mph - N/A   Clear
1:15 AM 41.2 °F 35.5 °F 28.2 °F 60% 30.05 in 10.0 mi West 9.2 mph - N/A   Clear
1:35 AM 39.7 °F 34.3 °F 28.4 °F 64% 30.04 in 10.0 mi West 8.1 mph - N/A   Clear
1:55 AM 40.1 °F 36.1 °F 27.5 °F 61% 30.04 in 10.0 mi West 5.8 mph - N/A   Clear
2:15 AM 40.3 °F 34.4 °F 27.0 °F 59% 30.03 in 10.0 mi West 9.2 mph - N/A   Clear
2:35 AM 40.1 °F 36.9 °F 26.6 °F 59% 30.03 in 10.0 mi WSW 4.6 mph - N/A   Clear
2:55 AM 42.6 °F 37.2 °F 26.6 °F 53% 30.03 in 10.0 mi WNW 9.2 mph - N/A   Clear
3:15 AM 40.5 °F - 26.4 °F 57% 30.03 in 10.0 mi Calm Calm - N/A   Clear
3:35 AM 43.5 °F - 25.9 °F 50% 30.03 in 10.0 mi Calm Calm - N/A   Clear
3:55 AM 41.0 °F 38.0 °F 26.2 °F 56% 30.02 in 10.0 mi SW 4.6 mph - N/A   Clear
4:15 AM 40.5 °F 35.8 °F 26.2 °F 57% 30.02 in 10.0 mi West 6.9 mph - N/A   Clear
4:35 AM 39.9 °F 34.5 °F 27.1 °F 60% 30.02 in 10.0 mi WNW 8.1 mph - N/A   Clear
4:55 AM 39.2 °F 33.0 °F 27.5 °F 63% 30.02 in 10.0 mi West 9.2 mph - N/A   Clear
5:15 AM 39.7 °F 35.6 °F 27.7 °F 62% 30.01 in 10.0 mi West 5.8 mph - N/A   Clear
5:35 AM 39.9 °F 36.7 °F 27.5 °F 61% 30.01 in 10.0 mi West 4.6 mph - N/A   Clear
5:55 AM 39.7 °F - 27.5 °F 62% 30.01 in 10.0 mi Calm Calm - N/A   Clear
6:15 AM 38.7 °F - 26.8 °F 62% 30.02 in 10.0 mi Calm Calm - N/A   Clear
6:35 AM 38.1 °F - 27.1 °F 65% 30.03 in 10.0 mi Calm Calm - N/A   Clear
6:55 AM 37.9 °F - 27.5 °F 66% 30.03 in 10.0 mi Calm Calm - N/A   Clear
7:15 AM 38.7 °F - 29.1 °F 69% 30.04 in 10.0 mi Calm Calm - N/A   Clear
7:35 AM 41.5 °F - 31.1 °F 66% 30.04 in 10.0 mi Calm Calm - N/A   Clear
7:55 AM 45.0 °F - 30.2 °F 56% 30.04 in 10.0 mi Calm Calm - N/A   Clear
8:15 AM 48.6 °F - 29.1 °F 47% 30.04 in 10.0 mi Calm Calm - N/A   Clear
8:35 AM 50.9 °F - 29.1 °F 43% 30.04 in 10.0 mi Calm Calm - N/A   Clear
8:55 AM 54.0 °F - 29.1 °F 39% 30.03 in 10.0 mi SSW 3.5 mph - N/A   Clear
9:15 AM 57.0 °F - 31.1 °F 37% 30.02 in 10.0 mi South 4.6 mph - N/A   Clear
9:55 AM 63.9 °F - 29.7 °F 28% 30.02 in 10.0 mi WSW 8.1 mph - N/A   Clear
10:15 AM 63.3 °F - 30.2 °F 29% 30.02 in 10.0 mi WSW 5.8 mph - N/A   Clear
10:35 AM 67.8 °F - 30.9 °F 25% 30.01 in 10.0 mi SW 6.9 mph - N/A   Clear
10:55 AM 69.1 °F - 27.5 °F 21% 30.00 in 10.0 mi WSW 9.2 mph 16.1 mph N/A   Clear
11:15 AM 72.9 °F - 22.6 °F 15% 30.00 in 10.0 mi West 10.4 mph 17.3 mph N/A   Clear
11:35 AM 73.2 °F - 24.4 °F 16% 29.99 in 10.0 mi WSW 15.0 mph 18.4 mph N/A   Clear
11:55 AM 73.2 °F - 23.9 °F 16% 29.98 in 10.0 mi WSW 15.0 mph 21.9 mph N/A   Clear
12:15 PM 73.2 °F - 22.3 °F 15% 29.96 in 10.0 mi West 12.7 mph 20.7 mph N/A   Clear
12:35 PM 73.8 °F - 21.9 °F 14% 29.96 in 10.0 mi West 17.3 mph 23.0 mph N/A   Clear
12:55 PM 72.0 °F - 20.8 °F 15% 29.96 in 10.0 mi West 15.0 mph 24.2 mph N/A   Clear
1:15 PM 71.8 °F - 21.7 °F 15% 29.95 in 10.0 mi West 15.0 mph 23.0 mph N/A   Clear
1:35 PM 71.6 °F - 22.3 °F 16% 29.94 in 10.0 mi WSW 16.1 mph 21.9 mph N/A   Clear
1:55 PM 70.7 °F - 23.9 °F 17% 29.93 in 10.0 mi WSW 16.1 mph - N/A   Clear
2:15 PM 71.2 °F - 23.5 °F 17% 29.92 in 10.0 mi WSW 12.7 mph 18.4 mph N/A   Clear
2:35 PM 74.1 °F - 21.9 °F 14% 29.91 in 10.0 mi WSW 18.4 mph 23.0 mph N/A   Clear
2:55 PM 73.9 °F - 21.0 °F 14% 29.90 in 10.0 mi SW 17.3 mph 21.9 mph N/A   Clear
3:15 PM 74.3 °F - 21.6 °F 14% 29.88 in 10.0 mi SW 13.8 mph 20.7 mph N/A   Clear
3:35 PM 75.9 °F - 21.0 °F 13% 29.87 in 10.0 mi SW 13.8 mph 20.7 mph N/A   Clear
3:55 PM 75.9 °F - 21.0 °F 13% 29.86 in 10.0 mi WSW 15.0 mph 20.7 mph N/A   Clear
4:15 PM 77.0 °F - 21.2 °F 12% 29.85 in 10.0 mi WSW 19.6 mph 24.2 mph N/A   Clear
4:35 PM 77.2 °F - 21.4 °F 12% 29.84 in 10.0 mi SW 18.4 mph 25.3 mph N/A   Clear
4:55 PM 78.1 °F - 21.6 °F 12% 29.83 in 10.0 mi WSW 19.6 mph 25.3 mph N/A   Clear
5:15 PM 76.6 °F - 21.9 °F 13% 29.83 in 10.0 mi WSW 17.3 mph 21.9 mph N/A   Clear
5:35 PM 74.5 °F - 20.7 °F 13% 29.83 in 10.0 mi WSW 17.3 mph 25.3 mph N/A   Clear
5:55 PM 75.2 °F - 23.4 °F 14% 29.83 in 10.0 mi WSW 12.7 mph - N/A   Clear
6:15 PM 72.3 °F - 23.2 °F 16% 29.82 in 10.0 mi WSW 9.2 mph - N/A   Clear
6:35 PM 68.9 °F - 25.7 °F 20% 29.82 in 10.0 mi WSW 9.2 mph - N/A   Clear
6:55 PM 66.7 °F - 27.0 °F 22% 29.82 in 10.0 mi West 8.1 mph - N/A   Clear
7:15 PM 63.5 °F - 27.3 °F 25% 29.82 in 10.0 mi WNW 6.9 mph - N/A   Clear
7:35 PM 60.8 °F - 27.1 °F 28% 29.82 in 10.0 mi WNW 9.2 mph - N/A   Clear
7:55 PM 60.3 °F - 25.5 °F 27% 29.82 in 10.0 mi WNW 8.1 mph - N/A   Clear
8:15 PM 59.2 °F - 24.8 °F 27% 29.82 in 10.0 mi WNW 9.2 mph - N/A   Clear
8:35 PM 59.9 °F - 25.5 °F 27% 29.83 in 10.0 mi WNW 10.4 mph - N/A   Clear
8:55 PM 61.0 °F - 27.3 °F 28% 29.85 in 10.0 mi WNW 8.1 mph - N/A   Clear
9:15 PM 60.8 °F - 26.4 °F 27% 29.85 in 10.0 mi West 6.9 mph - N/A   Mostly Cloudy
9:35 PM 58.8 °F - 25.7 °F 28% 29.86 in 10.0 mi West 9.2 mph - N/A   Scattered Clouds
9:55 PM 55.6 °F - 27.0 °F 33% 29.86 in 10.0 mi WNW 8.1 mph - N/A   Scattered Clouds
10:15 PM 56.3 °F - 26.1 °F 31% 29.85 in 10.0 mi WNW 9.2 mph - N/A   Clear
10:35 PM 55.4 °F - 26.6 °F 33% 29.85 in 10.0 mi WNW 10.4 mph - N/A   Clear
10:55 PM 57.6 °F - 25.5 °F 29% 29.85 in 10.0 mi WNW 15.0 mph - N/A   Clear
11:15 PM 58.5 °F - 23.9 °F 26% 29.85 in 10.0 mi WNW 13.8 mph - N/A   Clear
11:35 PM 58.8 °F - 23.9 °F 26% 29.85 in 10.0 mi WNW 15.0 mph - N/A   Clear
11:55 PM 59.0 °F - 24.6 °F 27% 29.86 in 10.0 mi NW 19.6 mph - N/A   Clear